When you browse on this site, cookies collect data to enhance your experience and personalize the content and advertising you see.
Visit our Privacy Policy to learn more. By continuing to use the site, you agree to this use of cookies and data.
  • în România
  • Lista ţărilor
  • Pe 7 zile
  • Temperatura apei
  • Hartă satelitară
  • Meteo pe hartă
  • Widget-uri
  • user-avatar
    Intrare

    Meteo pe oră la Kuchary

    Astăzi, 11 Decembrie, Marţi

    Timp Temperatura Precipitaţii Vânt Presiune Umiditate
    00:00 -1°C° 0 mm 4 m/s 737 mmHg 86%
    01:00 -2°C° 0 mm 4 m/s 737 mmHg 85%
    02:00 -1°C° 0 mm 3 m/s 737 mmHg 85%
    03:00 -1°C° 0 mm 3 m/s 737 mmHg 86%
    04:00 -1°C° 0 mm 3 m/s 737 mmHg 86%
    05:00 -1°C° 0 mm 3 m/s 737 mmHg 86%
    06:00 -1°C° 0 mm 3 m/s 737 mmHg 85%
    07:00 -1°C° 0 mm 3 m/s 737 mmHg 85%
    08:00 -1°C° 0 mm 3 m/s 737 mmHg 81%
    09:00 0°C° 0 mm 3 m/s 737 mmHg 77%
    10:00 +1°C° 0 mm 3 m/s 737 mmHg 72%
    11:00 +1°C° 0.2 mm 3 m/s 736 mmHg 73%
    12:00 +2°C° 0.2 mm 3 m/s 736 mmHg 73%
    13:00 +2°C° 0.2 mm 3 m/s 736 mmHg 73%
    14:00 +3°C° 0.3 mm 2 m/s 736 mmHg 77%
    15:00 +2°C° 0.3 mm 2 m/s 737 mmHg 80%
    16:00 +2°C° 0.3 mm 2 m/s 737 mmHg 84%
    17:00 +2°C° 0.2 mm 2 m/s 737 mmHg 86%
    18:00 +1°C° 0.2 mm 2 m/s 737 mmHg 88%
    19:00 +1°C° 0.2 mm 2 m/s 737 mmHg 90%
    20:00 +1°C° 0.2 mm 2 m/s 737 mmHg 90%
    21:00 +1°C° 0.2 mm 2 m/s 738 mmHg 91%
    22:00 +1°C° 0.2 mm 2 m/s 738 mmHg 92%
    23:00 +1°C° 0.2 mm 2 m/s 738 mmHg 93%

    Mâine, 12 Decembrie, Miercuri

    Timp Temperatura Precipitaţii Vânt Presiune Umiditate
    00:00 +1°C° 0.2 mm 2 m/s 738 mmHg 93%
    01:00 +1°C° 0.2 mm 2 m/s 739 mmHg 93%
    02:00 +1°C° 0.2 mm 2 m/s 739 mmHg 94%
    03:00 +1°C° 0.2 mm 2 m/s 739 mmHg 94%
    04:00 +1°C° 0.2 mm 2 m/s 739 mmHg 94%
    05:00 +1°C° 0.2 mm 2 m/s 740 mmHg 94%
    06:00 +1°C° 0.2 mm 2 m/s 740 mmHg 95%
    07:00 +1°C° 0.2 mm 2 m/s 740 mmHg 95%
    08:00 +1°C° 0.1 mm 2 m/s 741 mmHg 94%
    09:00 +1°C° 0.1 mm 2 m/s 741 mmHg 93%
    10:00 +1°C° 0.1 mm 2 m/s 742 mmHg 93%
    11:00 +1°C° 0.1 mm 2 m/s 742 mmHg 91%
    12:00 +1°C° 0.1 mm 2 m/s 742 mmHg 90%
    13:00 +2°C° 0.1 mm 2 m/s 742 mmHg 89%
    14:00 +1°C° 0.1 mm 2 m/s 742 mmHg 90%
    15:00 -1°C° 0.1 mm 2 m/s 743 mmHg 91%
    16:00 -1°C° 0.1 mm 2 m/s 743 mmHg 92%
    17:00 -2°C° 0 mm 2 m/s 743 mmHg 91%
    18:00 -2°C° 0 mm 2 m/s 744 mmHg 91%
    19:00 -2°C° 0 mm 2 m/s 744 mmHg 91%
    20:00 -2°C° 0 mm 2 m/s 744 mmHg 92%
    21:00 -3°C° 0 mm 2 m/s 744 mmHg 93%
    22:00 -3°C° 0 mm 2 m/s 744 mmHg 94%
    23:00 -3°C° 0.1 mm 2 m/s 745 mmHg 94%

    Poimâine, 13 Decembrie, Joi

    Timp Temperatura Precipitaţii Vânt Presiune Umiditate
    00:00 -2°C° 0.1 mm 2 m/s 745 mmHg 94%
    01:00 -2°C° 0.1 mm 2 m/s 745 mmHg 94%
    02:00 -2°C° 0.1 mm 2 m/s 745 mmHg 94%
    03:00 -2°C° 0.1 mm 2 m/s 744 mmHg 94%
    04:00 -2°C° 0.1 mm 2 m/s 744 mmHg 93%
    05:00 -2°C° 0.1 mm 2 m/s 744 mmHg 94%
    06:00 -2°C° 0.1 mm 2 m/s 745 mmHg 94%
    07:00 -2°C° 0.1 mm 2 m/s 745 mmHg 94%
    08:00 -1°C° 0.1 mm 2 m/s 745 mmHg 93%
    09:00 -1°C° 0.1 mm 2 m/s 745 mmHg 92%
    10:00 -1°C° 0.1 mm 2 m/s 745 mmHg 91%
    11:00 -1°C° 0.1 mm 2 m/s 745 mmHg 90%
    12:00 +1°C° 0.1 mm 2 m/s 744 mmHg 89%
    13:00 +1°C° 0.1 mm 2 m/s 744 mmHg 88%
    14:00 -1°C° 0.1 mm 2 m/s 744 mmHg 89%
    15:00 -1°C° 0.1 mm 2 m/s 744 mmHg 90%
    16:00 -1°C° 0.1 mm 2 m/s 744 mmHg 91%
    17:00 -2°C° 0 mm 2 m/s 745 mmHg 92%
    18:00 -2°C° 0 mm 2 m/s 745 mmHg 92%
    19:00 0°C° 0 mm 1 m/s 745 mmHg 93%
    20:00 0°C° 0 mm 1 m/s 745 mmHg 93%
    21:00 0°C° 0 mm 1 m/s 745 mmHg 94%
    22:00 -1°C° 0 mm 1 m/s 745 mmHg 94%
    23:00 -1°C° 0 mm 1 m/s 746 mmHg 94%

    14 Decembrie, Vineri

    Timp Temperatura Precipitaţii Vânt Presiune Umiditate
    00:00 -1°C° 0 mm 1 m/s 746 mmHg 94%
    01:00 -1°C° 0 mm 1 m/s 746 mmHg 94%
    02:00 -1°C° 0 mm 1 m/s 746 mmHg 94%
    03:00 -1°C° 0 mm 1 m/s 746 mmHg 94%
    04:00 -1°C° 0 mm 1 m/s 746 mmHg 94%
    05:00 -1°C° 0 mm 1 m/s 746 mmHg 93%
    06:00 -2°C° 0 mm 1 m/s 746 mmHg 93%
    07:00 -2°C° 0 mm 1 m/s 746 mmHg 93%
    08:00 -1°C° 0 mm 1 m/s 746 mmHg 91%
    09:00 -1°C° 0 mm 1 m/s 746 mmHg 88%
    10:00 0°C° 0 mm 1 m/s 747 mmHg 86%
    11:00 0°C° 0 mm 1 m/s 747 mmHg 84%
    12:00 0°C° 0 mm 1 m/s 747 mmHg 83%
    13:00 +1°C° 0 mm 1 m/s 747 mmHg 81%
    14:00 0°C° 0 mm 1 m/s 747 mmHg 83%
    15:00 0°C° 0 mm 1 m/s 747 mmHg 85%
    16:00 0°C° 0 mm 1 m/s 747 mmHg 87%
    17:00 0°C° 0 mm 1 m/s 747 mmHg 89%
    18:00 0°C° 0 mm 1 m/s 747 mmHg 90%
    19:00 -1°C° 0 mm 1 m/s 748 mmHg 92%
    20:00 -1°C° 0 mm 1 m/s 748 mmHg 93%
    21:00 -1°C° 0 mm 1 m/s 748 mmHg 93%
    22:00 -1°C° 0 mm 1 m/s 748 mmHg 94%
    23:00 -1°C° 0 mm 1 m/s 748 mmHg 95%

    15 Decembrie, Sâmbătă

    Timp Temperatura Precipitaţii Vânt Presiune Umiditate
    00:00 -1°C° 0 mm 1 m/s 748 mmHg 95%
    01:00 -1°C° 0 mm 1 m/s 748 mmHg 96%
    02:00 -1°C° 0 mm 1 m/s 748 mmHg 95%
    03:00 -3°C° 0 mm 2 m/s 748 mmHg 95%
    04:00 -2°C° 0 mm 2 m/s 748 mmHg 95%
    05:00 -2°C° 0 mm 2 m/s 748 mmHg 95%
    06:00 -2°C° 0 mm 2 m/s 749 mmHg 94%
    07:00 -2°C° 0 mm 2 m/s 749 mmHg 94%
    08:00 -2°C° 0 mm 2 m/s 749 mmHg 91%
    09:00 -2°C° 0 mm 2 m/s 749 mmHg 88%
    10:00 -2°C° 0 mm 2 m/s 749 mmHg 86%
    11:00 -2°C° 0 mm 2 m/s 749 mmHg 84%
    12:00 -2°C° 0 mm 3 m/s 749 mmHg 83%
    13:00 -1°C° 0 mm 3 m/s 749 mmHg 82%
    14:00 -2°C° 0 mm 3 m/s 749 mmHg 84%
    15:00 -2°C° 0 mm 2 m/s 749 mmHg 86%
    16:00 -2°C° 0 mm 2 m/s 750 mmHg 88%
    17:00 -2°C° 0 mm 2 m/s 750 mmHg 89%
    18:00 -2°C° 0 mm 2 m/s 750 mmHg 89%
    19:00 -2°C° 0 mm 2 m/s 750 mmHg 90%
    20:00 -3°C° 0 mm 2 m/s 750 mmHg 91%
    21:00 -3°C° 0 mm 2 m/s 750 mmHg 91%
    22:00 -3°C° 0 mm 2 m/s 750 mmHg 92%
    23:00 -3°C° 0 mm 2 m/s 750 mmHg 92%

    16 Decembrie, Duminică

    Timp Temperatura Precipitaţii Vânt Presiune Umiditate
    00:00 -3°C° 0 mm 2 m/s 750 mmHg 92%
    01:00 -3°C° 0 mm 2 m/s 750 mmHg 92%
    02:00 -3°C° 0 mm 2 m/s 749 mmHg 92%
    03:00 -3°C° 0 mm 2 m/s 749 mmHg 92%
    04:00 -3°C° 0 mm 2 m/s 749 mmHg 92%
    05:00 -3°C° 0 mm 2 m/s 749 mmHg 92%
    06:00 -4°C° 0 mm 3 m/s 749 mmHg 92%
    07:00 -4°C° 0 mm 3 m/s 749 mmHg 92%
    08:00 -4°C° 0 mm 3 m/s 749 mmHg 90%
    09:00 -4°C° 0 mm 3 m/s 749 mmHg 87%
    10:00 -2°C° 0 mm 3 m/s 749 mmHg 85%
    11:00 -2°C° 0 mm 3 m/s 749 mmHg 84%
    12:00 -2°C° 0 mm 3 m/s 748 mmHg 83%
    13:00 -2°C° 0 mm 3 m/s 748 mmHg 82%
    14:00 -2°C° 0 mm 3 m/s 748 mmHg 84%
    15:00 -4°C° 0 mm 3 m/s 748 mmHg 86%
    16:00 -3°C° 0 mm 2 m/s 747 mmHg 88%
    17:00 -4°C° 0 mm 2 m/s 747 mmHg 88%
    18:00 -4°C° 0 mm 2 m/s 747 mmHg 88%
    19:00 -4°C° 0 mm 2 m/s 747 mmHg 88%
    20:00 -4°C° 0 mm 2 m/s 747 mmHg 88%
    21:00 -4°C° 0 mm 2 m/s 747 mmHg 87%
    22:00 -4°C° 0 mm 2 m/s 746 mmHg 86%
    23:00 -3°C° 0 mm 2 m/s 746 mmHg 84%
    Arată mai mult